Tracking 19570 objects as of 21-Feb-2019
HD Live streaming from Space Station
objects crossing your sky now

METEOR 2-17 DEB

Track METEOR 2-17 DEB now!
10-day predictions


NORAD ID: 35364
Int'l Code: 1988-005Y
Perigee: 911.2 km
Apogee: 935.2 km
Inclination: 82.6 °
Period: 103.3 minutes
Semi major axis: 7294 km
RCS: 0.008 m2 (small)
Launch date: January 30, 1988
Source: Commonwealth of Independent States (former USSR) (CIS)
Launch site: PLESETSK MISSILE AND SPACE COMPLEX (PKMTR)

Note: This is SATELLITE DEBRIS
aabbcc
Your satellite tracking list
Your tracking list is empty




NASA's NSSDC Master Catalog

Two Line Element Set (TLE):
1 35364U 88005Y   19051.93171506 +.00000186 +00000-0 +13015-3 0  9998
2 35364 082.5509 269.6808 0016465 214.8017 209.4806 13.93589263177616
Source of the keplerian elements: AFSPC